Home   Weather   Chennai   Past weeks
Flag for India

Past Weather in Chennai, Tamil Nadu, India — Yesterday and Last 2 Weeks

Now
91 °F

Passing clouds.


Feels Like: 99 °F
Forecast: 96 / 78 °F
Wind: 7 mph from South

Location: Madras / Minambakkam

Current Time: Mar 26, 2019 at 10:34:20 am

Latest Report: Mar 26, 2019 at 10:00 am


Visibility: 4 mi

Pressure: 29.95 "Hg

Humidity: 52%

Dew Point: 72 °F

Location of ChennaiLocation

Past Weather in Chennai — Graph

°F

Chennai Temperature Yesterday

Maximum temperature yesterday: 93 °F (at 11:30 am)
Minimum temperature yesterday: 77 °F (at 6:00 am)
Average temperature yesterday: 86 °F

High & Low Weather Summary for the Past Weeks

 TemperatureHumidityPressure
High97 °F (Mar 14, 3:00 pm)94% (Mar 12, 4:00 am)30.01 "Hg (Mar 12, 4:00 am)
Low73 °F (Mar 15, 6:00 am)26% (Mar 15, 12:00 pm)29.77 "Hg (Mar 19, 3:30 pm)
Average86 °F68%29.90 "Hg
* Reported Mar 11 8:30 am — Mar 26 9:00 am, Chennai. Weather by CustomWeather, © 2019

Note: Actual official high and low records may vary slightly from our data, if they occured in-between our weather recording intervals... More about our weather records

Advertising

Chennai Weather History for the Previous 24 Hours

Scroll right to see more
 ConditionsComfort  
Time TempWeatherWind HumidityBarometerVisibility
9:00 am
Tue, Mar 26
88 °FScattered clouds.7 mph66%29.95 "Hg3 mi
8:30 am86 °FFog.6 mph75%29.95 "Hg3 mi
8:00 am82 °FFog.5 mph84%29.92 "Hg2 mi
7:30 am81 °FFog.6 mph89%29.92 "Hg2 mi
7:00 am81 °FFog.3 mph89%29.92 "Hg2 mi
6:30 am79 °FFog.3 mph89%29.89 "Hg2 mi
6:00 am79 °FFog.3 mph89%29.89 "Hg2 mi
5:30 am81 °FFog.3 mph89%29.86 "Hg3 mi
5:00 am82 °FPassing clouds.3 mph84%29.86 "Hg4 mi
4:30 am82 °FPassing clouds.3 mph84%29.83 "Hg4 mi
4:00 am82 °FPassing clouds.5 mph84%29.83 "Hg4 mi
3:30 am82 °FPassing clouds.5 mph84%29.83 "Hg4 mi
3:00 am82 °FPassing clouds.3 mph84%29.83 "Hg4 mi
2:30 am82 °FPassing clouds.3 mph84%29.83 "Hg4 mi
2:00 am82 °FPassing clouds.3 mph84%29.86 "Hg4 mi
1:30 am82 °FPassing clouds.3 mph84%29.86 "Hg4 mi
1:00 am82 °FPassing clouds.3 mph84%29.86 "Hg4 mi
12:30 am84 °FPassing clouds.5 mph79%29.89 "Hg4 mi
12:00 am84 °FPassing clouds.6 mph79%29.89 "Hg4 mi
11:30 pm
Mon, Mar 25
84 °FPassing clouds.7 mph79%29.89 "Hg4 mi
11:00 pm84 °FPassing clouds.7 mph79%29.89 "Hg4 mi
10:30 pm84 °FPassing clouds.6 mph79%29.89 "Hg4 mi
10:00 pm84 °FPassing clouds.7 mph79%29.89 "Hg4 mi
9:30 pm84 °FPassing clouds.7 mph79%29.89 "Hg4 mi
9:00 pm84 °FPassing clouds.7 mph79%29.89 "Hg4 mi
8:30 pm86 °FPassing clouds.9 mph75%29.86 "Hg4 mi
8:00 pm86 °FPassing clouds.9 mph75%29.86 "Hg4 mi
7:30 pm86 °FPassing clouds.9 mph75%29.86 "Hg4 mi
7:00 pm86 °FPassing clouds.9 mph75%29.83 "Hg4 mi
6:30 pm86 °FPassing clouds.13 mph75%29.83 "Hg4 mi
6:00 pm86 °FPassing clouds.13 mph70%29.83 "Hg4 mi
5:30 pm88 °FPassing clouds.12 mph66%29.83 "Hg5 mi
5:00 pm90 °FPassing clouds.9 mph59%29.80 "Hg5 mi
4:30 pm90 °FHot.9 mph55%29.80 "Hg5 mi
4:00 pm91 °FHot.9 mph56%29.80 "Hg5 mi
3:30 pm91 °FSunny.9 mph56%29.80 "Hg10 mi
3:00 pm91 °FSunny.9 mph56%29.80 "Hg10 mi
2:30 pm93 °FSunny.9 mph53%29.83 "Hg10 mi
2:00 pm93 °FSunny.9 mph53%29.83 "Hg10 mi
1:30 pm93 °FSunny.9 mph56%29.83 "Hg10 mi
1:00 pm93 °FSunny.9 mph56%29.86 "Hg10 mi
12:30 pm93 °FPassing clouds.12 mph56%29.86 "HgN/A
12:00 pm93 °FSunny.12 mph56%29.89 "Hg10 mi
11:30 am93 °FClear.9 mph49%29.89 "Hg5 mi
11:00 am91 °FHot.9 mph59%29.92 "Hg5 mi
10:30 am91 °FPassing clouds.5 mph59%29.92 "Hg4 mi
10:00 am90 °FPassing clouds.6 mph59%29.92 "Hg4 mi
Weather by CustomWeather, © 2019

See weather overview